Regional Weather Roundup
Issued by NWS

Home | Current Version | Previous Version | Text Only | Print | Product List | Glossary Off
Versions: 1 2 3 4 5 6 7 8 9 10 11 12 13 14 15 16 17 18 19 20 21 22 23 24 25 26 27 28 29 30 31 32 33 34 35 36 37 38 39 40 41 42 43 44 45 46 47 48 49 50

000
ASUS44 KMEG 280100
RWRTN
TENNESSEE HOURLY STATE WEATHER ROUNDUP
NATIONAL WEATHER SERVICE MEMPHIS TN
800 PM CDT FRI MAY 27 2016

TNZ002-004-019-021-049-052-054-088>092-280200-
WEST TENNESSEE

CITY           SKY/WX    TMP DP  RH WIND       PRES   REMARKS
MEMPHIS INTL   RAIN      71  67  87 SE15G22   29.90F FOG
NWS MEMPHIS      N/A     70 N/A N/A MISG        N/A
JACKSON        CLOUDY    77  65  66 VRB7      29.93R
DYERSBURG      CLOUDY    75  66  73 SE8       29.88F
UNION CITY     CLEAR     75  70  83 SE9       29.89S
PARIS          CLEAR     73  66  78 S5        29.94R
LEXINGTON      CLEAR     79  64  61 S6        29.94S
$$

TNZ008-025-027-028-033-062-065-066-280200-
NORTH MIDDLE TENNESSEE

CITY           SKY/WX    TMP DP  RH WIND       PRES   REMARKS
NASHVILLE      CLOUDY    81  63  54 SW3       29.96R
CLARKSVILLE    CLOUDY    77  65  66 S8        29.95R
COOKEVILLE     PTCLDY    79  70  73 SE7       29.99S
CROSSVILLE     CLOUDY    72  66  81 CALM      30.07R
$$

TNZ061-075-076-078-094-096-097-280200-
SOUTH MIDDLE TENNESSEE

CITY           SKY/WX    TMP DP  RH WIND       PRES   REMARKS
TULLAHOMA      CLOUDY    70  70 100 S9        30.03R
WINCHESTER     PTCLDY    81  64  57 SE8       30.01R
COLUMBIA       CLEAR     77  75  94 S6        29.96R
SHELBYVILLE    PTCLDY    82  66  57 SW3       29.99R
$$

TNZ017-018-042-046-047-280200-
NORTHEAST TENNESSEE

CITY           SKY/WX    TMP DP  RH WIND       PRES   REMARKS
TRI CITIES     CLOUDY    69  67  93 CALM      30.10R
$$

TNZ012-013-036-069-073-074-280200-
CENTRAL EAST TENNESSEE

CITY           SKY/WX    TMP DP  RH WIND       PRES   REMARKS
KNOXVILLE      MOCLDY    72  67  84 E6        30.03R
OAK RIDGE      PTCLDY    74  68  81 CALM      30.05R
GATLINBURG     PTCLDY    73  64  73 CALM      30.04R
$$

TNZ083-085-099-280200-
SOUTHEAST TENNESSEE

CITY           SKY/WX    TMP DP  RH WIND       PRES   REMARKS
CHATTANOOGA    MOCLDY    82  61  48 SE7       30.01R
$$

SKY/WX REPORTED AS FAIR MEANS FEW OR NO CLOUDS BELOW
12 THOUSAND FEET.





USA.gov is the U.S. government's official web portal to all federal, state and local government web resources and services.